Wind_Speed
24 25 24 25 24 24 23 22 22 22 23 23 24 24 26 27 28 29 29 29 29 28 27 26 24 23 23 23 23 23 22 23 22 21 20 20 19 18 18 17 18 18 18 19 19 19 19 19 19 19 18 18 17 16 16 16 16 17 16 16 16 16 15 15 15 14 14 14 14 14 14 14 13 14 15 14 15 15 15 16 16 18 19 17 16
28 25 24 25 25 25 24 23 22 22 23 23 24 25 26 28 29 29 28 28 27 26 25 23 22 22 23 24 23 23 23 23 22 21 21 20 19 18 18 18 19 19 19 19 19 19 19 20 19 19 18 17 16 16 16 15 15 15 14 13 13 13 13 13 13 12 11 11 13 13 13 13 13 14 14 14 16 16 17 18 19 21 19 17 17
30 26 24 23 25 25 24 24 23 23 23 24 24 25 26 27 27 26 26 25 25 24 23 23 23 23 23 24 23 23 23 23 22 21 20 19 19 18 18 19 20 20 19 19 20 20 20 20 19 18 17 17 16 16 16 15 14 13 12 12 11 11 11 11 11 11 9 9 10 11 13 13 14 15 16 16 17 17 18 19 19 19 18 18 20
30 28 26 24 25 25 24 24 23 24 24 24 24 24 25 25 24 23 23 23 24 24 23 23 23 23 23 23 23 24 23 23 22 20 20 19 18 18 18 19 20 20 20 21 20 20 20 20 19 19 17 17 16 16 15 14 14 13 12 11 10 10 10 10 10 9 9 9 10 11 14 16 17 17 17 17 17 18 19 19 19 18 18 19 19
30 27 27 26 25 25 25 24 24 24 24 25 24 24 24 24 23 22 23 23 24 23 23 23 22 23 23 23 23 23 22 22 22 20 19 19 18 18 18 19 19 20 20 20 20 20 20 19 18 18 16 16 15 15 14 13 12 12 12 11 10 9 9 9 9 10 11 13 15 17 19 19 18 17 16 17 17 18 18 18 18 17 18 18 18
30 28 28 26 25 25 25 25 24 24 24 25 24 24 23 23 23 22 22 23 22 22 22 22 23 23 22 22 22 22 22 22 21 20 19 18 18 17 18 19 20 20 19 19 19 19 19 18 17 16 14 13 13 12 11 11 10 11 11 10 9 8 9 9 10 13 15 17 19 20 19 18 17 16 16 17 17 17 18 18 17 18 18 18 18
30 29 28 27 26 25 25 25 24 24 24 25 24 24 23 23 23 22 22 22 21 21 22 22 22 22 22 22 21 22 22 22 21 20 19 18 17 17 18 19 20 19 18 18 18 18 17 16 15 14 13 11 10 10 10 11 11 11 9 9 10 10 10 11 14 16 17 18 19 18 17 18 17 16 16 16 16 17 18 18 18 18 17 17 17
29 29 28 27 26 25 24 24 23 23 24 24 24 23 23 22 23 22 22 21 20 20 21 21 22 21 21 21 21 22 22 22 21 20 18 17 17 16 18 19 19 18 17 18 18 17 16 15 14 14 12 11 10 11 11 12 12 11 9 10 10 11 12 13 14 16 16 17 17 17 18 18 16 16 17 17 17 17 18 18 18 17 16 16 16
28 28 27 27 25 25 24 23 23 23 23 23 23 23 22 22 22 22 21 21 20 20 20 20 21 20 20 20 21 22 22 21 20 19 18 17 16 16 17 17 17 17 17 17 16 16 14 14 14 13 11 11 11 11 11 11 11 11 11 10 9 10 12 13 13 15 16 17 16 16 17 17 15 16 17 16 15 15 15 17 16 16 16 15 15
26 25 25 26 25 24 24 23 23 22 23 23 23 22 21 21 21 22 21 20 20 19 20 19 20 20 19 19 19 20 21 21 20 19 18 17 16 15 15 16 16 16 16 16 16 15 13 13 13 12 11 12 12 12 11 11 11 11 10 9 9 10 12 12 13 14 16 15 15 15 15 15 16 16 16 15 14 13 14 15 16 16 16 14 16
24 23 24 25 24 23 23 23 22 22 22 22 22 22 21 20 21 21 21 20 19 19 20 19 19 19 19 18 18 19 20 20 19 19 18 17 16 16 15 15 16 15 15 16 15 14 13 13 12 12 12 12 12 12 11 11 11 11 10 9 9 10 11 11 13 15 15 14 14 15 15 16 17 15 15 16 15 15 15 15 15 16 15 14 16
23 23 24 24 23 22 23 22 21 21 21 21 21 21 21 20 20 20 20 20 19 19 19 19 18 19 18 18 17 18 18 18 18 18 18 17 16 16 15 15 15 15 14 15 15 14 13 13 12 12 12 12 11 11 11 11 11 11 11 10 9 10 10 10 12 15 15 16 16 17 17 17 16 15 15 15 14 14 15 14 15 16 14 14 16
22 21 23 23 22 21 22 21 21 21 21 21 21 21 20 19 19 19 20 19 19 19 19 19 19 18 18 17 17 17 17 17 17 17 17 17 16 15 15 15 14 14 14 14 14 14 14 13 13 13 12 11 10 11 11 11 11 11 11 11 10 9 9 11 13 15 16 16 16 16 17 16 13 14 15 14 13 14 14 13 14 15 13 14 16
22 21 22 22 21 20 20 20 20 20 20 20 20 20 20 20 19 19 19 18 19 19 18 18 18 19 18 17 16 16 16 16 16 16 16 16 16 15 14 14 14 13 14 14 13 14 14 13 13 12 12 10 9 9 10 10 10 11 11 10 10 9 10 12 15 15 15 15 15 15 15 14 12 13 14 12 13 15 14 13 14 14 13 13 14
21 21 21 20 20 19 19 20 20 19 19 19 19 19 19 19 19 18 18 17 18 18 18 17 18 18 17 16 16 16 16 16 16 15 15 15 15 15 14 13 13 13 12 13 14 15 14 13 12 12 12 10 9 9 9 9 9 10 10 10 9 9 10 12 15 15 15 15 14 15 15 13 11 12 13 12 12 14 14 13 13 13 13 13 13
20 21 20 20 20 18 18 18 19 19 18 18 17 17 17 18 17 17 17 15 16 17 17 16 17 17 16 16 16 15 15 15 15 15 14 14 14 14 14 13 12 12 12 12 14 15 15 14 12 11 10 9 9 8 8 7 8 9 9 9 9 9 9 12 14 14 15 15 15 15 14 12 10 12 13 12 11 12 12 12 11 12 13 13 13
20 22 21 20 20 18 17 17 18 17 16 16 16 15 15 16 16 16 16 14 14 16 15 15 16 15 15 15 14 15 15 15 15 14 14 14 14 13 13 12 11 11 11 12 14 16 15 13 12 10 9 8 8 8 7 7 7 8 8 9 9 9 9 11 13 13 13 13 13 13 12 10 10 12 12 11 10 10 11 11 10 11 12 12 13
21 23 23 22 21 19 16 16 16 16 15 14 14 14 14 14 15 15 15 14 14 15 15 14 15 15 14 13 13 13 14 14 14 14 13 13 13 12 12 11 10 11 11 12 14 15 15 13 10 9 9 7 7 7 7 7 7 7 8 8 8 8 9 10 12 12 12 12 12 12 11 10 9 10 11 10 10 10 10 10 11 11 12 12 12
20 22 22 22 21 19 17 15 15 17 16 15 14 14 14 14 15 15 15 14 14 15 15 14 14 14 13 13 12 12 13 13 13 13 12 12 11 11 11 10 10 10 10 10 12 14 14 13 10 8 8 7 7 7 7 7 7 7 8 8 7 7 8 9 11 12 12 13 13 11 11 10 8 9 10 10 9 10 10 10 10 10 11 11 12
18 19 20 20 20 19 18 17 16 16 17 17 15 15 15 14 14 15 15 15 15 15 15 15 14 14 13 12 12 12 11 11 12 13 12 11 11 10 10 10 9 9 10 10 11 12 13 12 10 8 7 7 7 7 7 7 7 7 7 7 6 6 7 9 11 13 13 14 12 10 10 10 8 8 9 9 8 10 10 10 9 9 10 11 11
16 17 18 18 18 18 18 18 16 16 17 17 17 16 15 15 15 15 15 16 16 15 15 15 15 14 14 12 12 13 12 11 12 12 12 12 10 10 9 9 9 8 9 10 10 11 12 12 11 9 8 8 8 8 8 7 7 6 7 6 5 5 6 8 11 13 13 13 11 10 9 9 9 8 8 8 8 9 9 9 8 9 10 10 10
15 15 17 18 18 18 18 18 17 16 17 17 17 17 16 16 16 15 15 16 16 15 15 15 16 15 15 14 14 14 14 12 12 11 11 12 10 9 8 8 8 8 9 10 10 11 12 12 11 9 8 8 9 9 9 7 7 5 6 5 4 5 6 7 10 12 13 13 11 10 9 8 9 8 8 8 7 8 8 8 8 8 9 9 10
13 13 15 17 17 18 18 18 17 17 17 18 18 18 17 17 17 16 16 17 17 17 16 16 16 16 17 16 15 14 15 14 12 10 10 11 10 9 8 8 7 7 8 10 11 11 12 12 11 10 9 9 9 9 9 8 7 5 5 4 4 4 5 6 9 11 13 13 10 10 9 8 8 8 8 7 7 7 8 8 8 8 8 9 9
13 14 15 16 17 18 18 19 18 18 18 18 18 18 19 18 18 17 17 17 17 17 17 17 17 17 18 17 16 15 15 14 11 10 10 10 10 10 9 8 7 6 7 9 11 11 12 12 11 10 10 9 9 8 8 7 6 5 4 3 3 4 5 6 8 11 12 12 10 9 9 7 7 8 7 7 6 7 7 7 7 7 8 8 8
14 15 15 16 17 18 18 19 18 18 18 18 18 18 19 19 19 18 18 19 18 18 18 18 18 18 18 18 16 15 15 14 13 12 12 12 11 10 10 9 8 7 6 8 11 12 12 13 12 11 10 9 9 8 7 6 7 5 4 3 3 3 4 5 8 10 11 11 9 8 7 6 8 7 7 8 6 6 7 7 7 7 7 8 8
14 14 15 15 16 17 17 18 18 18 18 18 17 18 19 20 20 20 20 20 20 20 20 19 20 20 19 18 17 17 16 16 15 14 14 13 11 11 10 9 8 7 6 6 9 11 12 13 13 12 10 9 8 7 6 6 6 5 4 4 3 3 4 5 8 10 10 10 8 8 8 7 8 7 6 7 6 6 6 6 7 7 7 7 7
14 13 14 14 15 16 16 17 18 19 19 18 18 18 19 20 20 21 21 21 21 21 21 21 21 21 20 20 19 19 18 18 17 16 15 14 12 11 10 9 8 7 6 6 7 9 11 12 13 13 11 9 8 7 7 6 5 4 4 5 4 3 3 4 7 9 9 10 7 6 10 9 6 7 6 6 6 6 5 5 6 6 6 6 6
11 11 11 12 14 15 16 17 17 18 18 19 19 19 20 21 21 21 21 21 22 22 22 22 22 21 21 21 20 20 19 19 19 17 16 15 14 12 11 9 8 7 6 6 7 8 11 12 13 14 13 11 9 7 6 6 5 4 4 5 5 4 3 4 6 7 8 9 7 5 10 10 7 6 5 5 6 5 5 5 5 5 6 6 6
6 7 9 11 14 14 15 16 17 17 17 18 18 19 20 21 22 22 22 21 22 23 22 23 22 22 22 21 21 21 21 20 20 19 17 16 16 14 12 11 9 8 7 7 7 8 10 11 13 15 14 12 10 8 7 6 6 5 5 6 6 5 3 3 5 6 7 8 7 5 7 9 9 8 5 5 7 6 5 5 5 5 5 6 6
7 9 10 11 13 14 15 16 17 17 17 19 19 20 21 22 22 23 24 23 23 23 23 23 23 23 23 22 22 21 21 21 21 20 19 18 17 16 14 13 11 10 8 8 8 9 10 11 13 15 15 13 10 8 7 6 6 5 5 6 7 6 4 3 4 5 6 7 7 7 7 7 8 9 8 7 6 6 6 5 5 5 6 6 6
8 9 10 12 13 14 15 16 17 17 18 19 20 21 22 23 23 23 24 25 24 24 24 24 24 25 24 23 23 22 21 21 22 22 21 19 19 18 16 15 14 12 11 9 9 10 10 10 12 15 15 14 11 9 7 6 6 5 5 7 8 7 6 4 4 5 6 7 7 7 8 8 7 7 8 8 7 7 6 6 6 6 6 6 6
5 5 8 10 13 14 16 16 17 17 18 19 20 21 22 23 23 23 24 25 25 25 25 26 25 26 25 24 24 23 22 21 22 22 22 21 20 20 19 18 16 15 13 11 10 10 11 11 12 14 15 14 12 10 8 7 6 6 6 8 9 9 8 6 5 6 6 8 8 7 8 8 8 8 7 7 8 8 7 7 7 7 7 6 6
2 2 3 5 8 12 14 16 16 18 19 20 20 21 22 22 23 24 24 24 25 25 27 27 27 27 26 25 25 24 23 23 22 23 24 24 22 22 21 20 18 16 14 13 12 11 12 12 13 14 15 14 13 12 10 9 8 8 8 9 10 10 10 8 7 6 6 8 8 8 8 8 8 9 8 6 7 8 8 8 7 7 7 7 7
10 9 7 6 5 6 9 11 14 17 19 20 22 22 24 23 23 23 23 24 24 25 27 27 28 28 27 27 26 26 25 24 23 23 24 25 25 24 23 21 19 17 16 15 13 12 12 13 14 15 15 15 14 14 13 11 10 9 10 11 11 12 12 11 10 9 8 7 8 8 9 8 8 10 9 8 9 8 8 8 8 9 8 8 8
14 14 12 11 11 10 9 8 9 12 16 19 22 24 26 25 23 22 23 23 24 26 27 27 28 29 29 29 29 28 27 26 25 24 25 26 27 27 25 23 21 19 17 16 15 14 13 13 13 15 16 16 15 15 15 14 12 11 12 12 13 13 14 14 13 12 10 8 8 9 9 9 10 11 10 11 11 10 8 8 8 9 9 9 9
20 19 16 16 15 15 14 13 11 9 11 15 19 23 25 25 23 23 23 24 26 28 29 28 29 29 30 30 30 30 29 28 27 26 26 27 28 29 28 25 23 21 19 18 17 17 16 15 15 15 16 16 16 16 16 15 14 14 14 14 14 15 16 17 17 15 13 11 10 9 10 10 10 12 12 12 12 10 8 7 7 8 10 10 10
24 23 22 21 20 19 18 17 15 12 11 11 14 17 21 23 23 23 24 26 27 29 29 29 29 30 30 30 30 30 30 29 29 28 28 28 29 30 29 27 25 23 21 20 20 19 18 18 17 16 16 17 17 17 17 16 15 15 15 16 16 17 18 19 20 18 16 14 13 11 11 10 10 12 13 13 11 10 9 8 8 8 10 11 10
25 25 25 24 24 23 21 20 17 14 13 12 11 12 16 19 21 23 25 25 27 29 30 29 29 29 29 30 29 29 29 29 29 29 29 29 29 29 28 27 26 24 23 22 21 20 19 19 20 19 18 18 18 18 18 18 17 16 16 17 18 18 19 20 21 21 19 18 16 14 12 11 11 12 13 14 13 11 11 11 10 9 11 11 10
26 26 25 25 24 23 22 22 20 18 14 12 11 11 12 13 17 21 23 24 25 29 30 28 26 26 25 26 27 27 28 29 29 30 30 30 29 28 27 26 25 24 23 22 22 21 20 21 21 21 20 20 19 19 18 17 16 16 17 17 19 20 21 20 21 22 22 21 18 16 15 14 13 12 13 15 14 13 12 12 11 11 12 12 10
26 25 25 26 26 25 23 21 22 21 18 14 11 11 11 10 13 18 22 22 21 22 24 24 23 24 23 22 22 24 26 28 29 30 30 31 30 29 27 25 25 24 24 24 24 23 22 22 22 22 22 21 20 19 17 17 16 15 14 16 17 18 20 21 21 22 22 22 21 19 18 17 15 14 14 15 15 15 14 13 13 12 12 12 12
26 27 27 27 27 26 24 22 21 21 21 19 14 10 11 11 11 15 18 16 13 15 19 20 21 23 24 22 21 22 25 27 29 30 30 31 31 31 28 26 25 25 25 25 25 25 24 23 22 22 23 23 22 20 18 16 14 11 9 11 14 15 17 21 22 22 22 23 23 22 20 19 19 17 16 16 17 17 16 15 14 14 14 14 14
26 27 27 27 26 25 24 23 21 20 21 22 18 12 10 11 12 14 14 12 13 16 14 11 12 15 21 24 26 26 25 26 28 30 31 32 32 32 31 29 27 26 26 26 25 24 24 23 23 23 24 24 23 21 21 17 12 11 8 5 7 9 12 17 20 21 22 23 25 24 23 22 21 20 18 18 19 18 18 18 17 16 16 16 16
26 28 29 28 27 25 22 21 20 19 20 21 20 14 10 10 12 14 14 15 17 18 14 11 11 14 18 22 27 28 26 25 27 29 30 32 32 32 32 31 30 29 28 28 27 26 25 25 25 26 25 24 23 20 21 20 16 13 8 3 2 3 6 10 16 20 22 24 26 26 25 23 23 22 21 21 21 20 20 20 20 19 18 17 18
29 31 31 30 28 26 23 20 19 19 19 20 20 15 10 9 11 13 14 15 17 18 17 16 15 17 19 21 23 25 24 23 25 28 29 31 32 33 32 32 32 32 31 31 30 29 28 28 28 28 27 24 22 20 20 21 20 14 7 2 1 1 3 5 11 18 21 24 26 26 25 24 24 24 24 24 23 22 22 22 22 21 20 19 19
29 29 28 26 26 25 23 22 20 18 18 20 21 17 11 9 10 12 14 14 14 16 16 16 16 19 22 23 24 24 23 23 24 27 30 31 32 33 32 32 32 33 33 33 33 32 32 31 30 30 29 27 24 21 19 20 21 19 13 6 2 2 2 3 6 9 14 20 23 24 24 23 23 25 26 26 26 25 24 24 24 24 23 22 21
27 27 24 23 23 24 23 22 21 20 19 20 21 19 14 9 9 11 13 15 15 15 14 16 17 18 21 25 27 27 26 25 24 26 30 30 31 33 32 32 33 33 33 34 34 33 33 32 31 30 30 30 26 21 20 20 21 22 23 19 14 10 5 5 3 2 6 14 18 21 23 23 24 25 26 28 28 28 27 26 26 26 25 24 24
26 26 24 22 23 23 23 22 22 21 20 20 20 20 17 11 10 11 12 14 16 18 17 18 18 18 18 21 25 27 28 27 26 26 29 30 30 31 32 32 32 32 33 33 33 34 33 32 31 30 29 30 29 24 21 21 21 23 27 28 25 18 11 7 5 1 1 6 12 17 20 21 23 24 26 28 29 30 30 30 29 28 28 27 26
26 27 25 23 23 23 23 22 21 21 20 21 20 20 19 14 12 12 11 12 15 18 19 19 19 19 18 18 20 24 28 29 28 27 29 29 29 29 30 31 30 30 30 32 33 33 33 31 29 28 28 29 31 28 24 21 22 24 27 30 27 22 17 13 11 8 3 2 4 9 14 18 22 25 26 27 29 30 31 32 31 30 30 29 28
25 26 25 24 24 24 24 22 21 20 20 21 20 19 19 16 13 12 13 14 15 16 17 17 18 18 18 18 18 20 25 27 27 27 28 28 28 28 29 30 29 29 29 31 32 32 31 30 28 27 28 30 31 30 26 24 25 24 25 28 27 23 19 15 13 10 5 4 3 2 6 11 15 21 24 24 26 28 30 32 32 32 32 31 31
24 25 25 26 26 26 26 24 22 20 19 20 21 20 19 17 14 12 14 16 17 17 16 16 17 17 18 18 18 20 22 23 24 25 27 28 28 28 29 30 31 30 30 30 30 30 29 29 29 28 28 29 30 30 28 27 26 26 26 26 25 21 17 12 11 10 7 6 6 4 6 8 9 15 19 20 23 25 27 30 32 33 33 33 32
24 25 27 27 27 27 27 26 23 21 20 20 20 20 19 17 15 13 14 16 17 17 16 15 16 17 18 18 17 18 19 21 22 23 25 26 26 28 28 29 30 30 30 29 28 28 28 28 28 28 28 29 30 30 30 28 26 26 27 28 27 24 21 17 16 17 13 9 6 5 8 12 12 15 17 18 20 21 23 26 28 30 32 32 33
Wind_Direction
170 162 160 159 151 146 145 144 144 141 139 136 133 132 133 134 135 135 135 135 134 133 132 129 127 125 123 120 118 117 117 117 116 116 115 114 113 112 112 111 110 109 110 108 107 107 107 107 106 104 102 101 100 98 95 92 90 87 86 84 84 82 81 80 79 79 81 84 83 86 87 87 88 82 76 74 74 73 73 71 72 75 76 77 80
166 161 161 157 150 146 145 144 146 144 141 138 135 134 134 135 135 135 134 134 133 132 130 126 123 122 122 119 119 119 119 119 117 116 115 114 113 113 112 111 109 108 108 107 107 108 108 108 107 105 105 105 103 101 97 94 91 87 86 84 86 87 87 85 80 78 80 84 83 83 83 83 82 79 77 75 75 74 73 76 82 83 81 82 85
159 159 160 155 150 147 146 146 147 146 144 140 137 137 136 137 135 133 132 132 130 127 125 123 123 123 121 120 120 121 121 119 117 117 115 114 113 112 111 109 107 108 109 109 110 111 112 111 110 109 110 111 108 106 103 98 94 89 83 78 81 83 85 84 78 80 87 90 84 80 76 75 75 77 78 77 78 80 82 85 88 86 86 86 83
158 160 159 156 151 148 147 147 149 147 145 141 139 139 138 138 133 130 129 129 128 125 124 125 125 123 122 122 122 122 120 119 118 117 115 114 114 112 111 109 108 111 112 112 112 114 114 113 112 113 113 113 110 109 106 101 96 90 83 77 75 74 71 70 74 85 93 88 79 77 76 77 79 80 81 81 82 86 90 87 86 87 88 85 81
159 159 158 156 151 148 148 148 150 148 145 143 141 140 139 138 132 129 129 129 128 126 127 126 125 123 122 123 123 122 119 119 118 117 116 115 114 113 112 111 112 114 114 113 113 114 114 113 112 111 110 108 106 105 103 100 96 86 84 82 76 72 69 71 84 93 93 86 84 87 87 87 88 85 83 85 88 90 91 88 89 90 86 85 85
157 158 158 153 150 149 149 149 151 149 147 144 143 142 140 138 134 131 130 130 127 127 127 126 125 123 123 125 124 122 120 119 117 116 116 115 114 114 113 113 116 116 115 113 112 114 112 109 106 103 100 99 100 100 97 92 87 80 83 83 80 80 78 85 93 95 93 91 93 96 96 95 92 90 88 90 94 92 90 92 94 90 87 88 89
157 158 157 153 150 150 150 150 151 149 147 145 144 144 142 140 136 133 131 129 126 128 127 126 125 123 125 126 124 121 120 118 115 115 115 114 113 114 114 116 120 118 116 115 113 113 108 104 101 98 95 96 99 98 95 89 85 84 82 79 85 90 91 96 98 98 96 96 100 102 100 92 89 93 96 96 95 96 95 94 91 88 89 90 90
156 158 157 153 150 151 151 150 151 150 148 147 146 146 144 142 139 136 132 129 127 128 126 126 125 125 126 126 124 123 121 118 116 114 114 115 114 114 115 118 122 120 118 117 115 112 107 103 102 98 95 96 98 97 96 94 90 87 83 81 88 94 97 101 103 104 100 101 102 100 98 95 96 97 96 94 91 94 95 92 90 91 92 91 91
154 156 156 154 151 152 152 151 151 151 150 149 148 149 147 144 143 140 135 132 129 129 128 128 127 126 126 126 125 125 123 120 117 115 115 115 115 116 116 118 122 122 119 118 116 112 107 104 103 99 95 98 100 100 98 94 89 85 85 86 90 95 101 103 106 111 108 105 100 96 98 99 102 96 92 94 92 92 90 90 94 95 94 93 92
153 155 155 153 150 153 152 152 152 151 151 151 151 151 150 147 146 144 140 135 131 131 130 129 130 129 128 128 127 126 125 122 120 117 116 116 117 117 117 118 122 125 123 122 119 113 109 106 103 98 99 104 106 105 100 95 89 85 83 83 89 99 106 104 105 112 113 108 104 102 103 103 99 91 91 96 98 96 90 92 95 95 93 93 92
153 155 156 152 151 154 153 154 152 152 152 153 154 154 154 150 148 148 145 139 134 134 131 131 133 132 131 131 129 128 126 123 122 121 118 117 119 120 120 121 124 128 126 125 122 115 111 108 102 98 103 108 109 108 104 99 92 86 80 78 91 105 110 107 105 110 111 109 107 105 103 102 98 95 97 96 96 97 96 97 96 94 93 94 93
153 156 154 152 153 154 154 155 153 153 155 155 156 156 157 154 151 150 147 143 138 137 134 135 137 134 134 133 131 129 126 123 123 124 123 121 121 122 124 125 129 132 131 130 127 118 113 109 102 100 106 111 112 112 107 100 92 85 78 78 92 108 112 110 110 111 109 105 104 102 99 96 96 100 100 96 97 99 100 99 95 95 94 92 89
152 155 153 152 153 155 155 156 156 156 157 156 157 158 159 158 155 153 151 148 144 142 139 138 140 138 138 136 133 131 128 125 125 126 127 127 125 124 127 130 134 137 139 138 131 120 114 110 104 102 108 116 119 116 108 97 89 82 76 79 90 105 110 113 117 117 114 108 105 105 101 97 100 103 98 97 103 101 99 96 93 95 94 90 89
151 153 151 152 152 157 158 159 160 158 159 158 159 159 160 161 159 156 154 153 149 147 143 141 143 143 141 139 136 133 131 129 126 126 128 131 131 129 129 133 137 139 144 146 137 126 119 113 109 107 109 116 123 118 107 96 88 80 75 78 85 95 104 116 121 119 116 113 111 109 105 102 105 103 98 101 104 100 98 97 94 96 96 91 94
149 150 149 153 154 160 160 162 163 162 163 160 161 160 162 163 162 159 156 156 153 151 147 145 147 146 145 143 141 137 134 132 128 127 126 130 135 135 131 132 137 140 146 151 146 136 126 118 114 111 109 114 123 120 109 98 88 80 76 78 82 89 102 117 121 118 115 115 116 111 103 102 106 105 103 103 101 101 101 98 93 94 97 94 95
146 147 150 155 157 161 161 163 165 166 166 164 163 160 162 164 163 162 159 159 158 156 151 149 150 149 149 147 144 141 138 136 132 129 126 126 131 136 135 133 136 140 145 153 154 146 135 126 122 118 114 115 120 122 116 105 93 83 78 80 82 89 103 117 123 123 119 115 114 108 101 102 110 108 106 104 98 98 101 101 96 92 96 96 96
145 148 152 157 159 162 163 163 165 167 167 166 165 161 162 163 165 165 163 163 161 161 155 153 153 152 152 149 146 144 142 139 136 133 130 126 126 130 134 134 135 139 143 151 157 154 147 137 128 125 124 118 113 118 123 114 100 90 86 86 87 93 108 121 126 127 124 121 113 107 106 111 110 102 104 107 102 100 100 102 104 99 99 99 98
146 151 154 158 161 163 164 163 162 165 166 167 167 165 164 164 169 170 169 168 165 166 163 158 155 156 155 152 152 149 145 142 140 138 134 131 128 127 132 134 137 141 143 149 158 161 158 150 137 130 131 124 111 114 123 120 108 100 93 91 93 99 114 124 128 125 121 124 119 112 116 113 103 100 107 110 105 104 103 106 107 103 101 99 96
146 152 154 159 161 163 163 163 166 168 170 171 171 171 170 170 172 175 175 173 171 171 172 168 161 159 158 158 159 154 149 145 144 143 139 135 130 128 130 133 136 143 147 150 159 165 166 161 151 140 137 130 116 116 124 126 119 109 98 93 94 101 117 124 126 124 117 119 119 117 118 113 103 102 106 108 108 107 107 107 104 102 102 100 97
143 150 152 157 162 165 164 167 172 173 175 175 176 177 176 176 175 178 180 179 178 176 177 176 170 164 161 163 163 156 153 152 150 148 146 140 134 132 129 131 136 144 152 154 158 165 169 168 161 153 147 137 124 121 127 134 129 116 101 89 90 102 117 123 125 125 121 121 121 117 119 119 115 106 105 110 114 111 108 106 104 104 104 104 102
140 148 153 157 163 168 168 172 176 178 181 178 180 182 179 180 181 183 183 182 182 179 178 176 174 171 165 167 170 164 161 162 158 153 150 144 140 139 132 131 134 142 154 158 158 161 167 169 166 159 153 143 130 128 133 141 139 123 101 85 89 105 117 125 129 127 125 127 124 118 118 122 118 109 111 116 112 108 107 110 110 106 105 111 108
143 150 157 162 167 172 175 178 179 183 187 184 184 186 184 184 187 187 186 186 185 183 180 179 179 177 172 174 180 174 169 171 167 160 155 149 145 143 139 135 133 137 150 159 160 162 166 169 168 162 155 147 138 135 140 149 152 130 98 88 98 111 119 128 131 127 128 131 125 118 119 118 116 114 119 121 114 110 113 117 112 107 109 114 110
145 154 163 168 172 176 179 183 182 185 192 191 190 190 190 190 192 191 191 191 188 189 188 186 184 181 182 184 187 182 177 178 173 166 162 154 149 148 146 141 138 135 143 155 163 166 168 170 170 165 160 153 144 140 144 154 160 141 106 103 113 116 121 129 133 128 127 131 125 123 124 118 119 122 123 120 115 116 119 121 115 113 115 113 112
154 162 170 176 179 181 185 188 186 189 194 196 195 195 196 196 197 195 196 195 192 194 195 193 189 187 190 192 191 187 183 182 175 170 169 162 154 153 154 151 150 147 145 154 164 171 172 173 174 171 167 160 154 148 148 155 160 146 123 125 130 124 120 128 137 132 131 136 135 135 131 125 130 130 129 126 121 121 120 120 120 120 119 116 118
169 171 176 183 186 187 191 192 191 194 195 196 198 199 201 202 201 201 201 200 198 198 198 197 193 192 196 198 196 192 189 186 181 180 176 168 162 161 161 161 162 162 160 158 166 176 178 178 178 176 173 169 164 157 151 155 160 153 145 152 151 134 119 128 140 138 138 141 142 145 138 127 132 130 130 132 127 125 126 125 125 124 122 121 121
178 180 186 189 192 192 195 197 196 199 200 200 201 202 205 207 206 205 206 205 203 202 201 199 197 196 200 202 199 197 196 190 189 189 181 174 172 170 170 170 170 173 174 169 173 179 182 183 181 177 176 177 173 165 157 156 161 156 161 176 175 154 128 129 143 144 140 141 145 151 147 134 132 134 129 134 137 132 132 131 132 132 129 128 129
182 188 194 194 200 198 198 206 206 204 204 204 205 207 209 212 211 210 210 209 208 207 205 203 200 200 202 204 202 203 201 196 197 195 184 180 180 179 178 177 176 181 183 179 182 185 186 187 185 180 178 181 180 172 165 161 164 160 172 190 189 173 143 134 146 151 148 154 164 159 153 149 143 148 142 140 144 139 141 138 136 138 136 136 137
185 193 201 201 210 211 205 210 215 211 211 211 210 212 214 216 216 214 213 212 212 211 210 208 204 202 205 207 206 208 206 201 202 201 190 185 187 186 183 183 183 184 186 188 192 192 192 191 189 186 181 183 186 181 175 171 174 173 184 200 198 190 162 149 153 159 164 173 179 160 152 155 154 161 158 151 152 148 148 148 144 143 142 146 146
186 201 212 212 218 227 221 218 222 218 215 220 218 216 218 219 219 217 216 215 215 216 215 213 208 206 208 209 209 211 210 206 205 205 198 191 192 192 189 187 187 187 190 198 200 199 200 197 192 191 187 186 191 190 189 189 187 187 198 211 208 201 184 169 168 171 177 181 180 166 155 160 162 164 162 157 162 163 160 161 159 154 154 158 158
202 211 215 218 223 231 231 228 230 228 222 225 225 220 221 222 222 221 219 218 218 220 219 217 214 211 212 212 211 212 213 211 209 208 204 199 196 196 197 194 191 191 192 202 206 205 207 203 197 196 193 191 196 201 204 206 199 195 206 220 218 211 202 188 183 185 187 185 182 175 167 172 177 172 168 170 175 173 172 176 173 170 169 168 168
204 215 219 223 229 232 232 232 233 236 232 232 233 229 226 225 224 224 222 221 221 221 221 222 220 217 217 216 214 214 215 214 213 212 209 206 202 200 201 201 198 194 193 199 207 210 211 209 203 200 199 197 201 209 216 222 215 207 213 225 225 220 214 206 200 196 196 194 193 189 181 184 191 192 187 184 185 180 183 188 183 185 181 175 179
195 230 236 232 235 236 234 235 235 237 237 239 240 238 236 232 228 228 226 225 224 223 223 224 224 223 222 221 220 218 217 216 215 215 213 211 209 206 205 206 204 199 197 198 203 211 213 211 206 202 202 202 207 214 221 233 236 227 225 230 231 228 225 221 217 209 204 205 205 204 200 196 194 203 210 196 187 184 191 197 194 197 192 187 191
53 352 295 271 260 253 247 244 241 240 240 242 242 242 243 239 234 234 234 232 228 227 227 227 226 225 224 224 225 223 221 220 217 217 217 215 214 213 212 210 208 207 205 204 206 213 215 213 209 206 205 207 212 218 224 234 244 244 239 236 236 237 236 232 231 227 216 212 215 213 212 210 196 200 212 202 191 190 198 205 203 205 201 196 200
56 50 37 15 347 309 286 273 262 254 249 246 245 244 245 244 239 238 239 238 235 234 233 232 230 227 225 224 227 228 227 225 221 219 218 218 217 217 218 215 212 212 213 213 215 218 222 222 217 214 213 215 219 224 229 235 240 247 248 245 243 243 243 241 240 240 234 220 219 221 219 219 205 204 211 206 207 216 219 211 204 210 210 204 205
47 43 36 28 22 11 358 334 303 279 268 261 256 252 250 248 245 243 242 241 241 241 239 236 234 230 227 226 228 230 231 231 227 222 220 220 219 218 219 219 217 216 219 221 223 226 229 232 229 225 223 223 226 230 234 237 238 243 249 252 251 247 246 245 244 244 243 233 226 226 224 223 215 212 214 212 221 235 232 214 208 214 217 213 210
39 35 29 26 23 19 14 7 357 330 301 280 270 263 258 255 253 251 247 243 243 243 240 239 237 235 232 229 230 232 234 234 231 227 224 223 221 219 218 219 219 218 220 223 226 229 231 235 237 235 234 231 230 233 237 239 240 243 247 252 255 252 249 248 247 246 244 239 235 233 231 229 222 216 217 220 228 235 226 219 225 220 216 219 215
42 39 34 32 29 26 23 17 12 359 342 315 288 276 268 266 264 260 255 248 244 243 242 241 239 237 236 234 233 234 236 236 234 231 230 228 224 222 219 217 218 219 218 220 223 226 229 233 236 237 240 241 238 236 238 241 244 245 245 248 251 252 252 252 251 248 244 241 239 237 237 235 228 219 218 223 229 232 224 224 238 233 223 227 222
41 38 36 34 31 30 29 27 21 10 358 343 322 297 281 275 271 268 264 255 248 247 246 244 242 239 238 238 237 238 239 239 239 236 234 233 230 227 223 218 218 219 218 219 220 223 227 232 235 236 239 244 246 244 242 245 249 249 248 249 250 250 251 253 252 248 244 243 242 243 243 239 233 225 220 222 226 229 227 229 240 243 236 237 233
35 32 30 29 27 27 28 29 26 20 11 357 345 326 304 285 275 273 269 265 259 253 247 246 247 245 241 239 239 241 242 243 243 241 238 237 235 232 230 224 220 220 219 219 219 221 225 230 233 233 233 237 245 249 249 251 257 257 255 253 252 250 248 249 251 249 247 245 244 245 245 241 237 231 225 223 224 224 226 231 240 245 242 241 241
30 26 23 22 20 19 20 24 23 21 18 7 354 340 325 300 279 276 274 273 270 261 254 255 260 260 254 248 245 244 246 246 245 244 242 240 238 236 235 233 229 226 223 221 219 220 223 227 232 232 232 231 235 241 246 254 260 258 256 253 251 249 246 245 246 247 249 248 245 245 245 243 240 237 233 228 225 225 225 231 239 245 246 243 245
24 20 18 15 14 13 13 16 17 17 17 13 2 342 324 306 288 280 276 272 269 270 267 262 261 260 256 254 254 250 249 250 247 245 243 241 240 238 237 237 236 234 232 229 226 225 225 229 234 236 236 233 230 229 233 244 252 247 247 249 247 245 243 242 243 243 247 248 247 246 245 244 242 241 239 235 231 230 231 232 236 243 248 248 247
18 16 14 11 9 9 8 8 8 10 14 14 9 352 325 312 300 284 272 264 265 270 267 258 258 257 250 248 252 252 250 252 250 246 243 242 240 239 237 237 238 238 238 238 236 234 233 233 234 235 236 236 233 229 223 221 224 226 230 235 236 238 239 240 242 244 245 247 247 246 245 245 245 245 243 240 237 236 237 237 237 241 247 249 249
14 12 10 8 7 8 8 4 1 2 7 11 11 2 343 322 304 287 277 272 271 272 269 268 271 265 253 242 241 242 244 249 251 246 242 241 240 239 239 238 238 239 239 239 238 237 236 235 235 236 235 234 235 233 225 217 210 212 218 223 212 213 234 236 239 243 243 243 245 245 245 245 246 247 246 244 242 241 242 241 240 241 246 249 250
11 8 6 5 5 6 7 4 1 357 358 4 7 5 1 338 310 300 297 287 279 279 279 274 265 256 253 241 232 232 234 240 245 242 240 239 238 239 239 239 239 239 239 239 238 238 238 237 237 237 234 232 231 229 227 223 215 203 183 159 134 186 245 225 229 241 240 239 242 244 245 246 246 246 246 247 247 246 246 245 245 244 246 249 250
7 5 4 5 4 2 2 1 360 355 353 356 0 1 2 350 327 315 311 302 291 284 277 269 259 249 249 244 233 231 232 235 238 238 237 236 237 239 239 240 241 241 240 240 240 241 241 241 240 238 235 234 231 227 224 223 221 215 203 185 162 207 234 186 212 242 236 233 239 241 242 246 246 245 246 249 249 249 248 248 249 248 248 249 250
2 0 2 6 6 3 359 356 355 354 352 351 354 356 353 342 330 319 310 306 298 288 279 274 266 254 253 250 242 236 233 234 237 236 235 234 235 238 239 241 242 242 241 241 241 242 242 242 240 239 240 240 235 228 222 218 219 222 218 218 226 231 208 157 169 264 241 232 236 239 241 245 247 247 247 250 251 250 249 249 250 251 251 251 250
358 359 1 5 9 6 0 355 352 351 352 350 351 352 350 336 316 310 305 300 294 291 291 290 283 273 265 259 252 244 236 234 237 236 233 232 233 235 238 241 243 244 244 242 241 241 241 242 242 242 246 246 237 229 224 216 213 216 218 220 227 234 229 203 194 217 265 238 232 235 240 243 246 248 248 251 252 252 252 250 250 251 251 252 251
359 0 2 4 8 7 2 356 351 348 348 350 349 349 350 340 316 304 298 295 292 292 297 296 291 285 275 267 261 253 244 240 240 237 233 232 232 232 236 240 243 245 244 243 243 242 242 244 244 245 247 245 238 232 227 218 215 214 215 217 223 231 233 227 223 219 217 262 241 231 240 243 245 247 249 253 254 255 254 253 252 251 251 252 252
2 2 3 4 6 6 3 357 353 349 346 347 347 345 346 341 326 306 294 297 300 301 305 301 295 290 279 272 264 253 247 245 243 239 236 235 235 235 235 237 241 243 244 246 247 245 243 244 245 245 245 242 239 236 230 225 224 220 217 218 221 226 231 233 232 222 213 244 259 222 231 237 241 246 250 254 257 258 257 256 254 253 252 252 253
3 2 3 5 5 5 2 358 356 353 347 345 344 343 342 339 333 317 300 298 301 303 304 299 295 291 281 273 265 253 246 244 244 242 241 241 241 240 237 237 240 243 245 247 247 245 244 244 245 245 244 242 239 237 232 229 230 228 225 222 219 218 223 229 227 220 217 230 245 251 227 220 234 251 257 259 262 265 262 259 257 255 254 253 253
2 2 3 3 3 4 2 357 355 353 349 347 345 343 343 341 336 325 307 298 296 295 292 290 290 287 281 278 273 264 255 251 251 249 247 247 247 245 242 242 243 245 246 248 248 246 245 244 243 243 243 242 239 237 234 230 228 230 231 228 224 220 220 222 219 216 215 214 228 250 237 235 244 254 262 268 269 269 266 263 260 259 258 256 255
Height
791 793 794 794 795 798 801 804 806 808 809 810 811 812 813 814 814 815 817 817 818 818 819 820 820 821 823 824 825 826 827 827 829 830 831 831 832 833 833 833 834 834 835 836 837 838 838 839 839 840 840 841 842 842 843 844 844 844 845 845 845 845 845 845 845 845 845 845 845 845 844 844 844 844 844 844 843 843 842 843 842 842 842 843 843
789 794 796 795 794 797 800 803 806 808 810 811 812 813 814 815 815 816 817 818 819 819 820 821 822 823 824 825 826 826 827 828 829 831 832 832 833 834 834 834 834 835 836 837 838 839 839 840 840 841 842 842 843 843 844 845 845 846 846 846 846 846 847 847 847 847 847 847 846 846 846 845 845 845 845 845 844 844 844 844 844 844 845 845 844
789 793 796 798 796 797 800 802 805 807 809 811 812 813 815 815 816 817 818 819 820 821 821 822 823 824 825 826 826 827 828 829 830 831 832 833 834 834 835 835 836 837 838 839 839 840 840 841 841 842 843 843 844 845 845 846 847 847 847 848 848 848 848 848 848 848 848 848 848 847 847 847 847 847 847 847 846 846 846 846 846 846 846 846 846
790 793 795 798 797 798 800 803 806 808 809 811 813 814 815 816 817 818 819 820 820 822 822 823 824 825 826 827 828 828 829 829 831 832 833 834 834 835 836 836 837 838 839 840 840 840 841 842 843 843 844 845 845 846 846 847 848 848 848 849 849 849 849 849 849 849 849 849 849 849 848 848 848 848 849 848 848 848 848 848 848 848 848 848 848
790 793 795 797 797 798 800 803 806 808 810 811 813 815 816 817 818 819 820 821 821 823 823 824 825 826 828 828 829 829 830 831 832 833 833 834 835 836 837 837 838 839 840 841 841 841 842 843 844 845 846 846 847 847 848 848 849 849 849 850 850 850 850 850 850 850 850 850 850 850 850 850 850 850 850 850 850 850 850 850 850 850 850 850 850
791 794 796 797 798 799 801 803 807 809 810 812 813 815 817 818 819 820 821 822 823 824 825 825 826 827 829 830 831 831 831 832 832 833 834 835 836 837 838 838 839 840 842 842 842 843 843 844 845 846 847 847 848 848 848 849 849 850 850 850 851 851 851 851 851 852 852 852 851 851 851 851 851 852 852 852 852 851 851 851 851 851 851 851 851
791 794 796 797 798 800 803 804 807 810 811 813 815 816 818 819 820 821 822 823 824 825 826 826 827 829 830 831 832 832 832 833 834 835 836 837 837 838 839 840 841 842 843 844 844 844 844 845 846 847 848 848 849 849 850 850 850 850 851 851 851 852 852 852 853 853 853 853 853 853 853 853 853 853 853 853 853 853 853 853 853 853 853 853 853
793 795 796 797 799 801 804 806 809 811 812 814 815 817 819 820 821 822 823 824 825 826 827 828 829 830 831 832 833 833 834 834 835 836 837 838 839 840 840 841 842 843 844 845 845 845 846 846 847 847 848 849 850 850 851 851 851 851 851 852 852 852 853 853 854 854 855 855 854 854 854 854 855 854 855 855 854 854 854 854 854 855 855 855 854
795 797 798 799 800 803 805 807 809 811 813 814 816 818 820 821 821 822 823 824 826 827 828 829 830 832 833 834 834 835 835 835 836 837 838 839 840 841 842 843 844 845 846 846 846 847 847 847 848 848 849 850 851 851 852 852 852 852 852 852 852 853 853 854 855 856 856 856 856 856 856 856 856 856 856 856 856 856 856 856 856 856 856 856 856
798 799 800 800 802 804 806 808 810 812 813 815 817 819 820 822 822 823 824 825 826 828 829 830 831 833 834 835 836 836 836 836 837 837 839 840 841 842 843 844 845 846 847 848 848 848 848 849 849 850 851 851 852 852 853 853 853 853 853 853 853 853 854 855 856 857 857 857 857 857 857 857 857 857 858 858 858 858 858 858 857 857 857 857 857
799 801 802 803 804 805 807 809 810 812 814 815 817 819 821 822 823 823 824 825 826 828 829 831 832 833 835 836 837 837 837 837 837 838 840 841 842 843 844 845 847 848 848 849 849 849 850 850 850 851 852 853 853 853 854 854 854 854 854 854 854 854 855 856 857 857 858 858 858 858 858 859 859 859 859 859 859 860 860 860 859 859 859 859 859
799 801 803 804 806 807 809 810 811 813 814 816 817 819 821 822 823 824 824 826 827 828 829 831 832 834 836 837 838 838 838 838 838 839 840 842 843 844 845 846 847 848 849 850 850 850 851 851 852 853 854 854 854 855 855 855 855 855 855 855 855 855 856 857 857 858 859 860 860 859 859 860 860 861 861 861 861 861 861 861 861 860 861 860 860
800 802 804 806 807 809 810 811 812 813 815 816 818 819 820 822 823 824 825 826 827 828 829 831 832 834 836 837 838 838 838 838 839 840 841 842 843 844 845 846 847 849 849 850 851 851 852 852 853 854 855 855 856 856 856 856 856 856 856 856 856 856 857 857 858 859 860 860 861 861 861 861 862 862 862 862 862 862 863 863 862 862 862 862 862
800 803 805 807 809 810 811 813 813 814 815 816 817 819 820 822 823 824 825 826 827 829 830 831 833 834 836 838 839 839 839 839 840 840 841 842 843 844 845 846 848 849 849 851 852 853 853 854 854 855 856 856 857 857 858 858 857 857 857 857 857 857 858 858 859 860 861 861 862 862 862 863 863 863 864 864 863 864 864 864 864 864 864 863 863
801 804 807 808 810 811 812 814 814 816 816 817 819 819 821 822 824 825 826 827 828 830 831 832 834 835 837 838 839 839 840 840 840 841 842 843 843 845 846 847 848 849 850 851 852 853 854 855 856 856 856 857 858 859 859 859 858 858 858 858 858 858 859 859 860 861 861 862 863 863 863 864 864 864 865 865 865 865 865 866 866 865 865 865 865
802 804 807 809 811 812 813 814 816 817 818 820 820 821 823 824 825 826 827 828 830 832 833 834 835 837 838 839 840 840 840 840 841 841 842 843 844 845 846 847 848 849 850 851 852 854 855 856 856 857 857 858 858 859 860 859 859 859 859 859 859 859 860 860 861 862 862 863 864 864 865 865 866 866 866 866 866 866 867 867 867 867 867 867 866
802 804 806 809 811 813 814 816 818 819 821 822 823 824 825 826 827 828 829 830 832 833 834 836 836 838 839 840 841 841 841 841 842 842 842 843 844 845 846 847 848 849 850 851 853 854 855 856 857 857 857 858 859 860 860 860 860 860 860 860 860 860 860 861 861 862 863 864 865 865 866 867 867 867 867 867 867 868 868 868 868 868 868 868 868
803 804 806 809 811 813 815 817 819 821 822 824 825 826 826 828 829 830 831 832 833 834 835 837 838 839 840 842 842 842 842 842 843 843 843 843 844 845 846 847 848 849 850 852 853 855 856 856 857 857 858 859 859 860 861 861 860 860 861 861 861 861 861 861 862 862 863 864 865 866 867 868 868 868 868 868 869 869 869 870 870 869 869 869 869
805 806 807 809 811 814 816 817 819 820 821 823 825 826 827 828 829 830 831 832 833 834 836 837 838 840 841 842 843 843 844 844 844 844 844 844 845 846 846 847 848 850 851 852 854 855 856 857 857 857 858 859 860 861 861 861 861 861 861 861 862 862 862 862 862 863 863 864 865 866 867 868 869 869 870 870 870 870 870 871 871 871 871 871 871
808 809 810 812 813 815 816 817 818 819 821 822 824 825 827 828 829 830 831 832 833 834 835 836 838 840 841 842 843 844 845 845 845 845 845 845 845 846 847 848 849 850 851 853 854 856 857 857 858 858 859 859 860 861 862 862 862 861 861 862 863 863 863 863 863 863 864 864 865 866 867 869 870 870 871 871 871 871 871 872 872 872 872 872 872
811 811 812 814 815 816 816 817 818 820 821 822 823 825 826 828 829 830 831 832 833 834 835 836 837 839 841 842 843 844 845 845 845 845 846 846 846 847 848 848 849 851 852 853 855 856 857 858 858 858 859 860 860 861 862 863 863 862 861 863 864 864 864 864 864 864 864 865 866 867 868 868 869 871 871 872 871 872 872 872 873 872 873 873 873
812 813 814 815 815 816 816 817 819 820 821 822 823 825 826 827 829 830 831 832 833 834 835 836 837 838 840 841 842 843 844 845 845 846 846 846 847 847 848 849 850 851 852 854 855 856 858 858 859 859 859 859 860 861 862 863 864 863 862 863 865 865 865 865 865 865 865 866 866 867 868 869 870 871 872 872 872 873 873 873 873 873 874 874 874
813 814 815 816 817 817 817 818 818 819 820 822 823 824 826 827 828 830 831 832 833 834 835 836 837 838 839 840 841 842 843 844 845 846 846 847 847 848 849 850 851 852 853 854 856 857 858 859 859 859 859 860 860 860 861 862 863 863 862 863 865 866 866 865 865 866 866 866 867 868 868 869 870 871 872 872 873 873 873 874 874 874 874 875 875
813 814 815 816 817 818 818 818 819 819 820 821 823 824 825 827 828 829 831 832 833 834 835 836 837 839 839 840 841 842 843 844 845 846 846 847 847 848 849 850 851 852 853 854 856 857 858 859 860 860 860 860 860 860 861 862 863 863 863 864 865 866 866 866 866 866 867 867 868 868 869 869 870 871 872 872 873 873 874 874 875 875 875 875 876
813 814 815 816 817 818 818 819 820 820 821 822 823 824 825 827 828 829 830 831 832 833 834 836 837 838 839 840 841 841 842 843 844 845 846 846 847 848 849 850 851 852 854 855 856 857 858 859 860 860 860 860 860 860 860 861 862 862 863 864 865 865 866 866 866 867 867 868 868 869 869 869 870 871 872 872 873 874 875 875 875 876 876 876 876
815 815 816 817 818 819 819 820 821 821 822 822 823 825 826 827 828 829 830 830 831 832 833 834 836 837 838 839 840 841 842 842 843 844 845 846 847 848 849 850 851 853 854 855 856 857 858 859 860 860 861 861 860 860 860 861 861 862 863 864 865 866 866 866 866 867 867 868 868 869 869 870 870 871 872 873 874 874 875 876 876 877 877 877 877
816 817 818 819 819 820 821 821 821 821 822 823 824 825 826 827 828 829 829 830 831 832 832 833 834 836 837 838 839 840 840 841 842 843 844 845 846 847 849 850 851 853 854 855 857 857 858 859 860 860 861 861 861 861 861 861 861 861 862 864 865 866 866 866 866 867 867 868 868 869 870 870 871 872 872 873 874 875 876 876 877 877 877 878 878
819 819 820 820 821 821 822 822 822 822 822 823 824 825 826 827 828 829 830 831 832 832 833 834 834 835 836 837 838 838 839 840 841 841 843 844 845 846 848 850 851 852 854 855 857 858 859 859 860 860 861 861 861 861 861 862 862 862 862 864 865 865 866 866 866 867 868 868 868 869 870 871 872 872 873 873 875 875 876 877 877 877 878 878 879
821 821 822 822 822 822 823 824 824 824 824 824 824 825 826 827 828 829 830 831 832 833 834 834 835 835 835 836 837 837 838 839 840 841 842 843 844 845 847 849 850 851 853 855 856 858 859 859 860 860 861 861 861 861 862 863 863 863 863 864 865 866 866 866 866 867 868 868 868 869 869 870 871 872 873 874 875 876 876 877 878 878 879 879 879
822 822 822 822 823 824 824 825 825 825 825 824 824 825 826 827 828 828 829 830 831 833 834 835 835 835 835 835 836 836 837 838 839 840 841 842 843 844 846 847 849 850 852 854 855 857 858 859 859 860 861 860 861 861 862 863 863 863 864 865 865 866 866 866 866 867 867 868 868 869 869 870 871 872 873 874 875 876 877 877 878 879 879 879 880
823 823 822 823 823 824 825 825 825 825 825 825 825 825 826 826 827 828 829 829 830 831 833 834 834 834 834 834 835 835 836 837 838 839 840 841 842 843 844 845 847 848 850 852 854 856 857 858 859 860 860 860 861 861 862 863 863 864 864 865 866 866 867 867 867 867 867 868 868 869 869 870 871 872 872 873 874 875 876 877 878 879 879 880 880
824 824 824 824 824 825 825 825 825 825 825 825 825 826 826 826 827 828 828 829 830 830 831 832 833 834 834 835 835 835 836 836 837 838 839 840 841 842 843 844 845 846 848 850 852 854 855 857 858 859 859 860 860 861 862 863 863 864 865 866 866 866 867 867 867 867 867 867 868 869 869 870 870 871 872 873 874 875 876 877 878 878 879 880 880
825 825 825 825 826 826 826 826 825 825 825 825 826 826 826 826 827 827 828 829 829 830 830 831 832 833 834 835 835 835 835 835 836 836 837 839 840 841 842 842 843 845 847 849 851 852 854 855 856 857 858 859 859 860 861 862 863 863 864 866 866 866 867 867 867 867 867 867 868 868 869 869 870 871 872 872 873 874 876 877 877 878 879 880 880
826 826 826 827 827 827 827 826 825 825 825 825 825 825 826 826 826 827 827 828 829 829 830 830 831 831 832 834 834 835 835 835 835 835 836 837 838 840 841 842 842 844 845 847 850 851 853 854 855 856 856 856 858 859 860 861 862 863 864 865 866 866 867 867 867 866 866 867 868 868 868 869 869 870 871 872 873 874 875 876 877 878 879 879 880
828 828 828 828 828 827 826 826 825 824 824 824 824 825 825 825 825 827 827 828 828 828 828 829 830 830 831 832 833 834 834 834 834 834 834 835 836 837 839 841 841 842 843 845 848 850 852 853 854 855 855 855 856 857 859 860 861 862 863 864 865 865 866 866 866 866 866 866 867 868 868 868 869 870 871 872 873 874 874 875 876 877 878 879 880
829 829 829 828 828 827 826 825 824 823 823 823 823 823 824 824 824 825 826 826 826 826 827 827 828 828 829 829 830 832 832 833 833 833 833 833 834 835 837 839 840 840 841 843 845 848 850 852 853 854 854 854 854 855 857 858 859 861 862 863 863 864 864 865 865 865 865 866 867 867 867 868 868 869 870 871 872 873 874 875 875 876 877 878 879
830 830 829 828 828 827 826 825 824 823 822 822 822 822 822 823 823 823 824 824 825 825 825 825 825 826 827 828 829 830 831 832 832 833 832 832 832 833 835 837 838 838 839 841 842 845 847 849 851 852 853 854 854 854 855 856 857 859 860 861 861 862 862 863 864 864 865 865 866 866 867 867 868 869 870 871 872 872 873 874 875 876 877 877 878
831 831 830 829 828 827 826 825 824 823 822 822 821 821 821 821 822 821 821 822 822 823 823 824 824 825 826 827 828 829 830 831 832 832 832 832 832 833 834 835 836 837 838 838 840 842 844 846 848 849 851 852 853 853 854 855 856 857 858 859 860 860 860 861 862 863 864 864 864 865 866 867 867 868 869 870 871 872 872 873 874 875 875 876 877
832 831 830 830 829 828 827 825 824 823 822 821 821 821 820 820 820 819 819 820 820 821 822 823 823 824 824 826 827 828 829 831 831 832 833 833 833 833 834 835 835 836 837 837 838 840 841 843 845 847 848 849 851 852 852 853 854 855 856 857 858 858 859 860 861 861 862 863 864 864 865 866 867 867 868 869 870 871 872 872 873 874 874 875 876
833 833 832 831 830 829 827 826 824 823 822 821 820 820 820 820 819 819 819 819 819 820 820 822 824 824 824 825 826 827 828 829 830 831 832 833 833 833 834 835 835 835 836 836 837 837 839 841 843 844 845 846 847 849 850 851 852 853 854 855 856 857 858 858 859 859 861 862 862 863 864 865 866 867 867 868 869 870 871 871 872 873 873 874 875
834 833 833 832 831 830 828 826 825 824 823 821 820 820 819 819 818 818 818 818 818 818 818 818 820 821 822 824 826 826 827 827 829 829 830 832 833 833 833 834 834 835 835 835 836 837 838 839 841 843 844 844 844 845 847 849 851 852 853 854 854 855 856 857 858 858 859 860 861 862 862 863 864 865 866 867 868 868 869 870 871 872 872 873 874
835 834 833 832 831 830 828 827 825 824 823 822 820 819 819 818 818 817 817 817 817 816 816 816 815 814 815 818 821 823 824 825 827 827 828 829 830 831 831 832 833 834 835 835 836 836 837 838 839 840 841 842 842 843 844 845 847 849 851 853 854 855 855 856 856 857 858 858 859 860 860 861 862 863 865 865 866 867 868 868 869 870 871 871 872
834 833 832 831 830 829 828 826 825 824 822 821 820 819 818 817 817 817 816 816 815 815 815 815 814 812 811 811 814 817 819 822 824 825 826 827 827 828 829 830 831 832 833 834 834 835 836 836 837 838 839 839 841 842 842 842 843 846 850 853 854 854 854 854 854 855 855 856 857 857 858 859 860 861 862 863 864 865 866 867 867 868 869 869 870
833 832 830 829 828 828 827 826 825 823 822 821 819 818 817 816 816 815 815 815 814 814 814 814 814 812 810 810 811 812 814 816 818 821 823 824 824 825 826 827 828 829 830 831 832 833 834 835 835 836 836 837 838 839 841 840 840 843 848 851 853 854 853 852 852 852 853 854 854 855 856 857 858 859 860 861 862 863 864 865 865 866 867 867 868
834 833 832 830 829 827 826 825 824 823 821 820 819 817 816 815 814 813 813 813 813 813 813 812 812 812 810 809 810 811 811 812 813 816 818 820 821 822 823 824 825 826 827 829 829 830 831 832 833 834 834 835 836 837 839 839 839 839 842 846 850 852 851 850 850 851 851 851 852 852 854 855 856 857 858 859 860 861 862 863 863 864 864 865 866
835 834 833 832 830 828 826 824 823 822 821 820 818 817 815 814 813 812 812 812 811 811 811 811 811 810 810 808 808 809 808 809 810 812 813 815 817 818 820 821 822 823 824 826 827 828 829 830 831 832 832 833 835 836 836 837 838 838 838 840 843 845 845 847 850 850 849 849 850 851 851 852 853 855 856 856 857 858 859 860 861 861 862 862 863
836 834 833 832 830 827 826 824 823 821 820 819 818 816 815 813 812 811 810 810 809 808 809 810 809 808 808 807 807 807 807 807 807 808 810 811 813 815 817 819 820 821 822 823 824 825 826 827 829 830 830 832 833 833 833 835 836 836 836 837 838 840 842 844 847 849 848 848 848 849 849 850 851 852 853 854 854 855 856 857 858 858 859 859 860
835 834 832 830 829 827 825 824 823 821 820 819 817 816 814 813 811 810 809 807 807 806 806 806 806 806 806 805 805 804 805 806 806 806 807 809 810 812 814 816 817 818 819 820 821 822 824 825 826 828 828 829 830 831 831 832 833 833 834 835 836 838 840 842 843 845 846 846 846 847 848 849 849 850 850 851 852 852 853 853 854 855 856 857 857
835 833 832 830 828 826 825 823 822 821 819 818 816 815 814 812 810 809 807 805 804 803 803 803 803 803 803 802 803 803 804 804 805 805 806 807 808 809 811 813 815 816 817 818 818 820 821 822 824 825 826 827 828 829 829 829 830 831 833 834 835 837 839 841 842 843 844 845 845 845 846 847 847 847 848 848 849 849 849 850 850 851 853 854 854
835 833 832 830 828 826 824 822 821 820 818 817 815 813 812 810 808 807 805 803 802 801 801 801 800 801 800 800 801 801 802 803 803 804 805 806 807 807 808 810 812 813 815 815 816 818 819 820 821 822 823 824 825 826 825 825 826 829 831 832 834 835 837 839 840 842 843 844 844 843 844 845 845 845 845 845 846 846 846 847 847 848 849 850 851
834 832 830 829 827 825 823 821 820 819 817 816 814 812 810 808 807 805 803 802 800 800 799 798 798 798 798 798 799 799 800 801 802 803 804 805 805 806 806 808 810 811 812 813 814 815 817 818 819 820 821 821 822 822 822 822 823 826 829 830 831 832 834 835 836 838 840 841 842 841 841 842 842 841 842 843 843 843 843 844 844 844 845 846 847